Regional Weather Roundup
Issued by NWS State College, PA

Home | Current Version | Previous Version | Graphics & Text | Print | Product List | Glossary On
Versions: 1 2 3 4 5 6 7 8 9 10 11 12 13 14 15 16 17 18 19 20 21 22 23 24 25 26 27 28 29 30 31 32 33 34 35 36 37 38 39 40 41 42 43 44 45 46 47 48 49 50
000
ASUS41 KCTP 182110
RWRCTP

REGIONAL WEATHER ROUNDUP
NATIONAL WEATHER SERVICE STATE COLLEGE PA
500 PM EDT WED OCT 18 2017

Note: "fair" indicates few or no clouds below 12,000 feet with no
significant weather and/or obstructions to visibility.

* = STATION THAT DOES NOT REPORT PRECIPITATION /E.G. RAIN...SNOW...ETC/
    THUNDER OR FOG.

PAZ002>004-007>009-013>016-020>023-029>032-182200-
WESTERN PENNSYLVANIA

CITY           SKY/WX    TMP DP  RH WIND       PRES   REMARKS
ERIE           SUNNY     70  42  36 S12       30.19S
MEADVILLE      SUNNY     66  41  40 SW9       30.22F
FRANKLIN*      SUNNY     66  41  40 SW10      30.23F
NEW CASTLE     FAIR      71  42  35 S6        30.22F
BEAVER COUNTY  SUNNY     70  43  37 SE6       30.22F
BUTLER*        SUNNY    N/A N/A N/A S8        30.23F
PITTSBURGH INT MOSUNNY   70  39  32 S6        30.23F
PITTSBURGH     SUNNY     69  36  29 S12       30.23F
INDIANA*       SUNNY     70  43  37 SW3       30.26F
LATROBE        SUNNY     72  41  33 W9        30.26S
WASHINGTON CO* SUNNY     70  39  32 S7        30.25F
$$

PAZ004>006-010>012-017>019-024>028-033>037-041-042-045-046-049>053-182200-
CENTRAL PENNSYLVANIA

CITY           SKY/WX    TMP DP  RH WIND       PRES   REMARKS
BRADFORD       SUNNY     67  37  33 S9        30.24F
DUBOIS         SUNNY     67  34  29 S10       30.24F
CLEARFIELD     SUNNY     71  38  29 S5        30.24F
JOHNSTOWN      SUNNY     66  36  32 S10       30.27F
ALTOONA          N/A    N/A N/A N/A MISG      30.28F
STATE COLLEGE  SUNNY     68  43  40 S9        30.26F
WILLIAMSPORT   SUNNY     71  49  45 E5        30.22F
SELINSGROVE    SUNNY     69  48  47 S8        30.26F
FT INDIANTOWN  SUNNY     69  44  39 SW5       30.27F
CAPITAL CITY   SUNNY     71  42  35 SW7       30.26F
HARRISBURG     SUNNY     70  48  45 VRB6      30.26F
YORK           SUNNY     68  44  42 S8        30.28F
$$

PAZ038>040-043-044-047-048-054-055-060>062-067>071-182200-
EASTERN PENNSYLVANIA

CITY           SKY/WX    TMP DP  RH WIND       PRES   REMARKS
SCRANTON       SUNNY     69  42  37 SW8       30.25F
MOUNT POCONO   SUNNY     65  40  39 W12       30.27F
ALLENTOWN      SUNNY     70  46  42 SW9       30.26F
QUAKERTOWN*    CLEAR     68  45  42 SW6       30.28S
READING        SUNNY     70  48  45 SW7       30.26F
LANCASTER      SUNNY     69  47  45 W6        30.27F
COATESVILLE    CLEAR     68  46  45 VRB3      30.30F
POTTSTOWN      SUNNY     69  44  40 VRB5      30.29S
BLUE BELL      SUNNY     68  43  40 W3        30.29S
DOYLESTOWN     SUNNY     70  43  37 VRB5      30.26F
WILLOW GROVE   NOT AVBL
NORTH PHILA    SUNNY     71  46  40 S5        30.28F
PHILADELPHIA   SUNNY     71  45  39 SW12      30.28F
$$



USA.gov is the U.S. government's official web portal to all federal, state and local government web resources and services.